Tracking 20232 objects as of 21-Jan-2020
HD Live streaming from Space Station
objects crossing your sky now

SL-8 DEB

Track SL-8 DEB now!
10-day predictions


NORAD ID: 21401
Int'l Code: 1991-009BQ
Perigee: 1,499.9 km
Apogee: 1,727.6 km
Inclination: 74.1 °
Period: 118.3 minutes
Semi major axis: 7984 km
RCS: 0.0527 m2 (small)
Launch date: February 12, 1991
Source: Commonwealth of Independent States (former USSR) (CIS)
Launch site: PLESETSK MISSILE AND SPACE COMPLEX (PKMTR)

Note: This is SATELLITE DEBRIS
aabbcc
Your satellite tracking list
Your tracking list is empty




NASA's NSSDC Master Catalog

Two Line Element Set (TLE):
1 21401U 91009BQ  20021.02844413  .00000100  00000-0  11132-2 0  9999
2 21401  74.1340  46.8953 0142565  12.9038  10.8794 12.16772090282703
Source of the keplerian elements: AFSPC